Weather History for Chicopee, MA

Change the Weather History Date:

Tuesday, February 5, 2013

  Actual Average Record
Temperature  
Mean Temperature 24 °F -  
Max Temperature 29 °F 34 °F 50 °F (2005)
Min Temperature 19 °F 17 °F 0 °F (2009)
Degree Days  
Heating Degree Days 41    
Moisture  
Dew Point 17 °F    
Average Humidity 75    
Maximum Humidity 93    
Minimum Humidity 51    
Precipitation  
Precipitation 0.01 in - - ()
Sea Level Pressure  
Sea Level Pressure 29.96 in    
Wind  
Wind Speed 2 mph (SSE)    
Max Wind Speed 7 mph    
Max Gust Speed -    
Visibility 10 miles    
Events Snow    
Averages and records for this station are not official NWS values.
T = Trace of Precipitation, MM = Missing Value Source: NWS Daily Summary

Daily Weather History Graph

Daily Weather History Graph

Search for Another Location

Airport:

Trip Planner

Search our weather history database for the weather conditions in past years. The results will help you decide how hot, cold, wet, or windy it might be!

Date:

Astronomy

Feb. 05, 2013 Rise Set
Actual Time 6:58 AM EST 5:10 PM EST
Civil Twilight 6:29 AM EST 5:39 PM EST
Nautical Twilight 5:56 AM EST 6:12 PM EST
Astronomical Twilight 5:23 AM EST 6:45 PM EST
Moon 2:39 AM EST (2/5) 12:22 PM EST (2/5)
Length of Visible Light 11h 10m
Length of Day
10h 11m
Waning Crescent, 27% of the Moon is Illuminated
Feb 5
Waning Crescent
Feb 10
New
Feb 17
First Quarter
Feb 25
Full
Mar 4
Last Quarter

Hourly Weather History & Observations

Time (EST) Temp. Windchill Dew Point Humidity Pressure Visibility Wind Dir Wind Speed Gust Speed Precip Events Conditions
12:55 AM 20.1 °F 15.2 °F 9.7 °F 64% 29.97 in 10.0 mi West 3.5 mph - N/A   Overcast
1:55 AM 20.3 °F 15.4 °F 9.9 °F 64% 29.96 in 10.0 mi NNW 3.5 mph - N/A   Overcast
2:55 AM 20.1 °F - 11.5 °F 69% 29.96 in 10.0 mi Calm Calm - N/A   Overcast
3:55 AM 20.3 °F - 10.2 °F 65% 29.95 in 10.0 mi Calm Calm - N/A   Overcast
5:55 AM 19.9 °F 14.9 °F 13.3 °F 75% 29.97 in 10.0 mi NE 3.5 mph - N/A   Overcast
6:55 AM 20.3 °F - 12.9 °F 73% 29.98 in 10.0 mi Calm Calm - N/A   Overcast
7:55 AM 21.2 °F 16.4 °F 12.4 °F 69% 30.00 in 10.0 mi North 3.5 mph - N/A   Overcast
8:55 AM 22.1 °F - 11.8 °F 65% 30.01 in 10.0 mi Calm Calm - N/A   Overcast
9:55 AM 24.1 °F 19.7 °F 12.0 °F 60% 30.02 in 10.0 mi NW 3.5 mph - N/A   Overcast
10:55 AM 25.3 °F - 11.3 °F 55% 30.01 in 10.0 mi Calm Calm - N/A   Overcast
11:55 AM 26.8 °F - 10.9 °F 51% 29.99 in 10.0 mi Calm Calm - N/A   Clear
12:55 PM 27.9 °F - 11.7 °F 51% 29.96 in 10.0 mi Calm Calm - N/A   Clear
1:55 PM 28.4 °F 21.2 °F 12.2 °F 51% 29.96 in 10.0 mi South 6.9 mph - N/A   Mostly Cloudy
2:55 PM 28.4 °F 23.3 °F 12.2 °F 51% 29.95 in 7.0 mi SE 4.6 mph - N/A   Mostly Cloudy
3:55 PM 29.3 °F - 13.5 °F 52% 29.93 in 10.0 mi Calm Calm - N/A   Mostly Cloudy
4:55 PM 28.2 °F 23.1 °F 15.6 °F 59% 29.91 in 10.0 mi South 4.6 mph - N/A   Partly Cloudy
5:55 PM 27.9 °F 22.6 °F 16.9 °F 63% 29.93 in 10.0 mi South 4.6 mph - N/A   Mostly Cloudy
6:55 PM 26.6 °F 19.1 °F 19.4 °F 74% 29.94 in 10.0 mi South 6.9 mph - 0.00 in Snow Light Snow
7:55 PM 25.5 °F 21.3 °F 22.8 °F 89% 29.95 in 4.0 mi SSE 3.5 mph - 0.00 in Snow Light Snow
8:19 PM 24.8 °F 20.5 °F 23.0 °F 93% 29.95 in 7.0 mi SSE 3.5 mph - N/A   Overcast
8:25 PM 24.8 °F 20.5 °F 23.0 °F 93% 29.95 in 10.0 mi SSE 3.5 mph - N/A   Overcast
8:29 PM 24.8 °F 20.5 °F 23.0 °F 93% 29.95 in 10.0 mi South 3.5 mph - N/A   Overcast
8:30 PM 24.8 °F 20.5 °F 23.0 °F 93% 29.95 in 10.0 mi SSE 3.5 mph - N/A Snow Light Snow
8:35 PM 24.8 °F 20.5 °F 23.0 °F 93% 29.95 in 10.0 mi SSE 3.5 mph - N/A Snow Light Snow
8:55 PM 25.3 °F - 23.5 °F 93% 29.95 in 7.0 mi Calm Calm - 0.00 in Snow Light Snow
9:39 PM 24.8 °F - 23.0 °F 93% 29.93 in 10.0 mi Calm Calm - N/A   Overcast
9:55 PM 25.2 °F - 23.2 °F 92% 29.93 in 10.0 mi Calm Calm - 0.00 in   Overcast
10:55 PM 25.3 °F - 23.0 °F 91% 29.94 in 10.0 mi Calm Calm - N/A   Overcast
11:13 PM 24.8 °F - 23.0 °F 93% 29.94 in 10.0 mi Calm Calm - N/A Snow Light Snow
11:55 PM 25.2 °F - 23.2 °F 92% 29.94 in 10.0 mi Calm Calm - 0.00 in Snow Light Snow
11:57 PM 24.8 °F - 23.0 °F 93% 29.94 in 10.0 mi Calm Calm - N/A   Overcast
11:58 PM 24.8 °F - 23.0 °F 93% 29.94 in 10.0 mi Calm Calm - N/A Snow Light Snow